COSMOS 1275 DEB, 12769

Orbit data source: Space-Track

COSMOS 1275 DEB, 12769 is space debris in LEO originally from a launch on Thu, 04 Jun 1981 UTC launched from the Plesetsk Missile And Space Complex (PKMTR). Debris objects in space refer to the collection of defunct objects orbiting the Earth. Examples of debris include non-operational satellites, rocket bodies, and fragments generated from explosions, collisions, or faulty payload assembly.

Loading next visibility...
Identifier
12769, 1981-053DN
Orbit
LEO
Country
Flag of CISCIS
Related business
Manufacturer
Unknown
Mission
Spacecraft
Bus & Motor
Unknown
Mass
Unknown
Launch date (UTC)
1981-06-04 (45 years ago)
Launch vehicle
Unknown
Launch site
Plesetsk Missile And Space Complex (PKMTR)
Object type
Payload
Rocket body
Debris
Shape & HBR
Unknown shape, 0.3 m
Radar Cross Section
Medium (>0.1 m² and <1 m²)

Expand to show TLE details & history
Last TLE update: 15 hours ago

TLE from 15 hours ago
0 COSMOS 1275 DEB
1 12769U 81053DN  26045.97932417  .00000505  00000-0  51444-3 0  9992
2 12769  82.8175 235.7261 0070258 349.5956 174.9300 13.73969403225218
Epoch: 2026-02-14T23:30Z
TLE epoch observation values (Epoch: 2026-02-14T23:30:13.608Z)
Latitude
15.25643°
Longitude
-83.78482°
Altitude
1,039.102 km
Speed
7.308 km/s
True Right ascension
03h 35m 03s
True Declination
15° 10' 22"
Sunlit
Object was in daylight at epoch
Visualization orbit readout
Latitude
Unknown
Longitude
Unknown
Altitude
Unknown
Speed
Unknown
Apparent Right ascension
Unknown
Apparent Declination
Unknown
Sunlit
N/A
Visualization observer readout
Local Sidereal Time
17:06:46
Azimuth
Unknown
Elevation
Unknown
Doppler factor
Unknown
Orbital elements
Apogee altitude
1,034.224 km
Perigee altitude
930.795 km
Semi-major axis
7,360.647 km
Eccentricity
0.00703
Inclination
82.8175°
RAAN
235.7261°
Arg. of periapsis
349.5956°
True anomaly
175.00053°
Mean anomaly
174.93°
Eccentric anomaly
174.96533°
Mean motion
3.43692 °/min
Orbital period
104.74 mins
BSTAR
0.00051444
Loading maneuver chart data...
Computing Atmospheric mass density...

Documentation

Showing up to 5 results
|